This demonstration page uses our WeatherBlox Daily Observations layout. Learn more.

Left ArrowRight Arrow

38.88101, -77.10428

Hourly Observations for December 25, 2015

Temp ( °F °C ) Dew Point ( °F °C ) Humidity (%) Winds ( mph kmh ) Pressure ( in mb ) Visibility ( mi km ) Precip ( " mm )
12:52 am 00:52 Cloudy with Mist and Fog 62 16.7 62 16.7 100 100 N N/A 30.11 1020 4 6 N/A
1:01 am 01:01 Cloudy with Mist and Fog 63 17.2 63 17.2 100 100 N N/A 30.12 1020 4 6 N/A
1:09 am 01:09 Cloudy with Mist and Fog 63 17.2 63 17.2 100 100 N N/A 30.12 1020 4 6 N/A
1:18 am 01:18 Cloudy with Mist and Fog 63 17 63 17 100 100 N N/A 30.12 1020 4 6 N/A
1:25 am 01:25 Cloudy with Mist and Fog 63 17.2 62 16.7 97 97 N N/A 30.12 1020 6 10 N/A
1:52 am 01:52 Cloudy with Mist and Fog 63 17.2 63 17.2 100 100 S 6 9 30.13 1020 6 10 N/A
1:59 am 01:59 Cloudy with Mist and Fog 63 17.2 63 17.2 100 100 S 6 9 30.12 1020 4 6 N/A
2:06 am 02:06 Cloudy with Mist and Fog 63 17 63 17 100 100 S 6 9 30.12 1020 4 6 N/A
2:32 am 02:32 Cloudy with Mist and Fog 63 17 63 17 100 100 S 5 7 30.15 1021 4 6 N/A
2:43 am 02:43 Cloudy with Mist and Fog 62 16.7 62 16.7 100 100 S 5 7 30.15 1021 3 5 N/A
2:52 am 02:52 Cloudy with Mist and Fog 62 16.7 62 16.7 100 100 N N/A 30.14 1021 3 5 N/A
3:20 am 03:20 Cloudy with Mist and Fog 63 17 63 17 100 100 N N/A 30.15 1021 1 1 N/A
3:27 am 03:27 Cloudy with Fog 61 16.1 61 16.1 100 100 N N/A 30.15 1021 1 1 N/A
3:39 am 03:39 Cloudy with Mist and Fog 61 16.1 61 16.1 100 100 N N/A 30.12 1020 1 1 N/A
3:52 am 03:52 Mostly Cloudy with Fog 61 16.1 61 16.1 100 100 S 5 7 30.13 1020 0 0 N/A
4:23 am 04:23 Mostly Cloudy with Fog 62 16.7 61 16.1 96 96 S 5 7 30.12 1020 0 0 N/A
4:41 am 04:41 Mostly Cloudy with Fog 63 17.2 62 16.7 97 97 S 6 9 30.12 1020 0 0 N/A
4:52 am 04:52 Mostly Cloudy with Fog 64 17.8 64 17.8 100 100 S 6 9 30.13 1020 0 0 N/A
5:05 am 05:05 Mostly Cloudy with Fog 63 17.2 63 17.2 100 100 S 7 11 30.12 1020 0 0 N/A
5:15 am 05:15 Mostly Cloudy with Fog 64 17.8 63 17.2 96 96 SSW 6 9 30.12 1020 0 0 N/A
5:26 am 05:26 Mostly Cloudy with Fog 64 18 64 18 100 100 S 6 9 30.12 1020 0 0 N/A
5:52 am 05:52 Mostly Cloudy with Fog 66 18.9 66 18.9 100 100 N N/A 30.14 1021 0 0 N/A
6:03 am 06:03 Mostly Cloudy with Fog 66 19 66 19 100 100 N N/A 30.15 1021 0 0 N/A
6:24 am 06:24 Mostly Cloudy with Fog 63 17 61 16 94 94 N N/A 30.15 1021 0 0 N/A
6:52 am 06:52 Mostly Cloudy with Fog 64 17.8 64 17.8 100 100 S 5 7 30.14 1021 0 0 N/A
7:10 am 07:10 Mostly Cloudy with Fog 64 18 63 17 94 94 N N/A 30.15 1021 0 0 N/A
7:28 am 07:28 Cloudy with Mist and Fog 64 18 63 17 94 94 N N/A 30.15 1021 1 2 N/A
7:52 am 07:52 Cloudy with Mist and Fog 63 17.2 63 17.2 100 100 N 3 6 30.17 1022 1 2 N/A
8:28 am 08:28 Cloudy with Mist and Fog 63 17 63 17 100 100 N N/A 30.18 1022 2 3 N/A
8:39 am 08:39 Cloudy with Mist and Fog 63 17.2 63 17.2 100 100 N N/A 30.18 1022 2 3 N/A
8:52 am 08:52 Cloudy with Fog 65 18.3 64 17.8 97 97 E 3 6 30.18 1022 0 0 N/A
9:04 am 09:04 Cloudy with Fog 64 18 64 18 100 100 E 3 6 30.18 1022 2 3 N/A
9:11 am 09:11 Cloudy with Fog 65 18.3 65 18.3 100 100 E 3 6 30.18 1022 2 3 N/A
9:27 am 09:27 Cloudy with Fog 65 18.3 64 17.8 97 97 ESE 3 6 30.18 1022 5 8 N/A
9:52 am 09:52 Cloudy with Fog 67 19.4 66 18.9 97 97 N N/A 30.19 1022 5 8 N/A
10:52 am 10:52 Cloudy with Fog 66 18.9 65 18.3 96 96 S 3 6 30.18 1022 5 8 N/A
11:52 am 11:52 Cloudy with Fog 69 20.6 67 19.4 93 93 S 6 9 30.14 1021 5 8 N/A
12:07 pm 12:07 Cloudy with Light Rain 69 20.6 67 19.4 93 93 N N/A 30.12 1020 5 8 N/A
12:16 pm 12:16 Cloudy with Light Rain 66 19 66 19 100 100 SE 6 9 30.12 1020 5 8 N/A
12:52 pm 12:52 Cloudy with Fog 69 20.6 68 20 96 96 S 6 9 30.11 1020 5 8 0.02 0.51
1:36 pm 13:36 Cloudy with Light Rain 66 19 66 19 100 100 S 9 15 30.12 1020 4 6 N/A
1:52 pm 13:52 Cloudy with Fog 67 19.4 66 18.9 97 97 S 9 15 30.10 1019 7 11 N/A
1:57 pm 13:57 Cloudy with Fog 67 19.4 66 18.9 97 97 S 9 15 30.09 1019 2 3 N/A
1:59 pm 13:59 Cloudy with Fog 66 18.9 66 18.9 100 100 S 9 15 30.09 1019 6 10 N/A
2:52 pm 14:52 Cloudy with Light Rain 65 18.3 64 17.8 97 97 S 9 15 30.10 1019 7 11 0.01 0.25
3:05 pm 15:05 Cloudy with Light Rain 65 18.3 64 17.8 97 97 S 10 17 30.09 1019 6 10 N/A
3:14 pm 15:14 Cloudy with Light Rain 64 18 64 18 100 100 S 10 17 30.09 1019 6 10 N/A
3:52 pm 15:52 Cloudy with Light Rain 64 17.8 64 17.8 100 100 S 8 13 30.11 1020 4 6 0.04 1.02
4:21 pm 16:21 Cloudy with Light Rain 64 17.8 63 17.2 96 96 S 6 9 30.12 1020 4 6 N/A
4:42 pm 16:42 Cloudy with Light Rain 64 18 64 18 100 100 S 12 19 30.12 1020 5 8 N/A
4:52 pm 16:52 Cloudy with Light Rain 65 18.3 64 17.8 97 97 S 10 17 30.12 1020 5 8 0.03 0.76
5:00 pm 17:00 Mostly Cloudy with Light Rain 63 17 63 17 100 100 S 10 17 30.12 1020 5 8 N/A
5:13 pm 17:13 Cloudy with Light Rain 63 17.2 62 16.7 97 97 S 10 17 30.12 1020 6 10 0.01 0.25
5:39 pm 17:39 Cloudy with Light Rain 64 17.8 64 17.8 100 100 SSW 8 13 30.15 1021 8 13 0.02 0.51
5:52 pm 17:52 Cloudy with Light Rain 64 17.8 63 17.2 96 96 S 7 11 30.14 1021 10 16 0.02 0.51
6:11 pm 18:11 Cloudy with Heavy Rain 66 18.9 64 17.8 93 93 WNW 17 28 30.18 1022 10 16 N/A
6:16 pm 18:16 Cloudy with Heavy Rain 65 18.3 62 16.7 90 90 N 25 41 30.21 1023 3 4 0.03 0.76
6:20 pm 18:20 Cloudy with Heavy Rain 64 18 61 16 88 88 NNW 13 20 30.18 1022 2 2 N/A
6:23 pm 18:23 Cloudy with Heavy Rain 64 17.8 62 16.7 93 93 N 14 22 30.18 1022 4 6 0.15 3.81
6:26 pm 18:26 Cloudy with Light Rain 63 17 61 16 94 94 NNE 13 20 30.18 1022 6 10 N/A
6:35 pm 18:35 Cloudy with Light Rain 62 16.7 61 16.1 96 96 NE 12 19 30.18 1022 9 14 0.18 4.57
6:40 pm 18:40 Mostly Cloudy with Light Rain 63 17 61 16 94 94 NNE 9 15 30.15 1021 10 16 N/A
6:47 pm 18:47 Mostly Cloudy with Light Rain 61 16 61 16 100 100 NE 7 11 30.18 1022 10 16 0.18 4.57
6:52 pm 18:52 Cloudy with Light Rain 61 16.1 60 15.6 97 97 NE 5 7 30.17 1022 10 16 0.18 4.57
7:07 pm 19:07 Cloudy 62 16.7 61 16.1 96 96 ENE 6 9 30.18 1022 10 16 N/A
7:52 pm 19:52 Mostly Cloudy 59 15 58 14.4 96 96 N N/A 30.19 1022 10 16 N/A
8:38 pm 20:38 Cloudy 63 17 61 16 94 94 N 8 13 30.21 1023 10 16 N/A
8:52 pm 20:52 Cloudy 62 16.7 61 16.1 96 96 N 5 7 30.20 1023 10 16 N/A
9:26 pm 21:26 Cloudy 63 17 61 16 94 94 SE 3 6 30.21 1023 10 16 N/A
9:37 pm 21:37 Cloudy 60 15.6 59 15 96 96 N N/A 30.24 1024 10 16 N/A
9:52 pm 21:52 Cloudy 61 16.1 60 15.6 97 97 NNW 6 9 30.23 1024 10 16 N/A
10:52 pm 22:52 Mostly Cloudy with Fog 59 15 58 14.4 96 96 NNW 7 11 30.22 1024 9 14 N/A
11:52 pm 23:52 Cloudy 60 15.6 59 15 96 96 N N/A 30.22 1024 10 16 N/A

Powered by AerisWeather